Address 0xdf0449a06d9d499400d65ee886fd3b5a7b1f5be4 1

Txn Hash
Block
From
To
Value [Txn Fee]
0x606a44c0e70f6c67105ced7f924144ef1beef35721549c7a997959b2bd78b46c109599562021-07-27 15:51:3119 hrs 38 mins ago0xdf0449a06d9d499400d65ee886fd3b5a7b1f5be4OUT 0x50f08f4e63eb90247f7fc707630e3858a82763160 BNB0.02812595
0xf8e3f12b5b5bc044723f1c4890f16a82f49f96300304e123a1beae09bb688335109596892021-07-27 15:38:0219 hrs 51 mins ago0xdf0449a06d9d499400d65ee886fd3b5a7b1f5be4OUT 0x0ee8b0133135268bec201d8d7752b2f90e5a6c920 BNB0.03140848
0x19cb7efad7646ab859daa78ecb0bf7fb919afe695adc33314cad4fb467dd4e01109595332021-07-27 15:30:1419 hrs 59 mins ago0xdf0449a06d9d499400d65ee886fd3b5a7b1f5be4OUT 0x0ee8b0133135268bec201d8d7752b2f90e5a6c920 BNB0.03091071
0x15826e23524fd284847f83eb46dfb3d8c30e1108e1c1dad1070018a1c3e4af1b109587652021-07-27 14:51:2920 hrs 38 mins ago0xdf0449a06d9d499400d65ee886fd3b5a7b1f5be4OUT 0x50f08f4e63eb90247f7fc707630e3858a82763160 BNB0.03073657
0x4cc088472fb1f793df9fa68deaf11a6d46d5ccb85ca2062f31d4406c8b7b7780109580972021-07-27 14:18:0521 hrs 11 mins ago0xdf0449a06d9d499400d65ee886fd3b5a7b1f5be4OUT 0x0ee8b0133135268bec201d8d7752b2f90e5a6c920 BNB0.03132328
0xcd1d6742346277efbf6755726531433065621e1ee83742616d0cb2378573c9b8109543422021-07-27 11:10:201 day 19 mins ago0xdf0449a06d9d499400d65ee886fd3b5a7b1f5be4OUT 0x0ee8b0133135268bec201d8d7752b2f90e5a6c920 BNB0.02808845
0x5a37eb4cc4fc02d50cb2d6131535a08d60d7be8b06fe44b3ce4af25fe544f704109530692021-07-27 10:06:411 day 1 hr ago0xdf0449a06d9d499400d65ee886fd3b5a7b1f5be4OUT 0x50f08f4e63eb90247f7fc707630e3858a82763160 BNB0.02822781
0x8a13c919dc8e544ab198337f49e618c88abb8f0dfa6e60ae3c95f2f10f454407109510892021-07-27 8:27:411 day 3 hrs ago0xdf0449a06d9d499400d65ee886fd3b5a7b1f5be4OUT 0x50f08f4e63eb90247f7fc707630e3858a82763160 BNB0.03053343
0x4a4d6b30419ade9e48227fb125ac35bbb8889590da6be9dedf4421c71ac77fc6109502802021-07-27 7:47:141 day 3 hrs ago0xdf0449a06d9d499400d65ee886fd3b5a7b1f5be4OUT 0x0ee8b0133135268bec201d8d7752b2f90e5a6c920 BNB0.03216165
0xc0f4a2d127082c9b63a46cd0cd64f8f9acd6537292574bfa69c9eeaa6b86135d109491262021-07-27 6:49:321 day 4 hrs ago0xdf0449a06d9d499400d65ee886fd3b5a7b1f5be4OUT 0x0ee8b0133135268bec201d8d7752b2f90e5a6c920 BNB0.02821901
0x7a88de27b2c8a773771201f87286b86ae848e2e33d3d6d399275d9af180becf6109475362021-07-27 5:30:021 day 5 hrs ago0xdf0449a06d9d499400d65ee886fd3b5a7b1f5be4OUT 0x50f08f4e63eb90247f7fc707630e3858a82763160 BNB0.0006968
0x805d1c34ebbba8b453d6bdc5417acd256371b4150cd1a53648c13d1b930ee325109411562021-07-26 23:50:401 day 11 hrs ago0xdf0449a06d9d499400d65ee886fd3b5a7b1f5be4OUT 0x0ee8b0133135268bec201d8d7752b2f90e5a6c920 BNB0.03067938
0xab85b62032317f08f5c50cc6804583e6364c73fbd406be59716323a71fd7603b109401842021-07-26 23:02:041 day 12 hrs ago0xdf0449a06d9d499400d65ee886fd3b5a7b1f5be4OUT 0x50f08f4e63eb90247f7fc707630e3858a82763160 BNB0.0006968
0xe7044ded86c79d01a19a1ae0cc13a6c3d5bbda2cbf950d03e8ce08afa9fd8d13109393572021-07-26 22:20:431 day 13 hrs ago0xdf0449a06d9d499400d65ee886fd3b5a7b1f5be4OUT 0x50f08f4e63eb90247f7fc707630e3858a82763160 BNB0.02955492
0x75cd1e655f65f8ec13640cf079752de1d44523d391def2ae71ccc93c291afe13109376292021-07-26 20:54:191 day 14 hrs ago0xdf0449a06d9d499400d65ee886fd3b5a7b1f5be4OUT 0x0ee8b0133135268bec201d8d7752b2f90e5a6c920 BNB0.031353
0x4749ef6a0be92bce1bd3094d1d8424b8bb0664ac0ade28b6ca7cef672a01c0a6109373842021-07-26 20:42:041 day 14 hrs ago0xdf0449a06d9d499400d65ee886fd3b5a7b1f5be4OUT 0x0ee8b0133135268bec201d8d7752b2f90e5a6c920 BNB0.02768929
0x9693bd7494b8ce0b396daa9e23ca2226fa3813e423d552aba0232e810a905a3a109371962021-07-26 20:32:401 day 14 hrs ago0xdf0449a06d9d499400d65ee886fd3b5a7b1f5be4OUT 0x50f08f4e63eb90247f7fc707630e3858a82763160 BNB0.0308114
0x9752e0e90a6a907fdc9731ec605f758e29c7d4eca970bb65a31e0059978a3d52109369842021-07-26 20:22:041 day 15 hrs ago0xdf0449a06d9d499400d65ee886fd3b5a7b1f5be4OUT 0x0ee8b0133135268bec201d8d7752b2f90e5a6c920 BNB0.02769318
0x6bfff9b5a7e0584fa9d1c79d64968f6cc3133fc743f417200205e70c590d8564109353842021-07-26 19:02:041 day 16 hrs ago0xdf0449a06d9d499400d65ee886fd3b5a7b1f5be4OUT 0x50f08f4e63eb90247f7fc707630e3858a82763160 BNB0.02989682
0x9ab5ac70a769ff3ba4d19ce46edd11b6a0765bf4c5bd1f356f42a43f1f231227109288282021-07-26 13:32:061 day 21 hrs ago0xdf0449a06d9d499400d65ee886fd3b5a7b1f5be4OUT 0x50f08f4e63eb90247f7fc707630e3858a82763160 BNB0.02957073
0x715155cd4c7e0016d829a3b1b83af3d75ee5d3a56c852289170073455b9b7fc1109280992021-07-26 12:55:391 day 22 hrs ago0xdf0449a06d9d499400d65ee886fd3b5a7b1f5be4OUT 0x50f08f4e63eb90247f7fc707630e3858a82763160 BNB0.00069692
0x2be0cf6a2a6e2fa3f3a7a841acf00bcc2d3b289f5ad27ff395984224e7175710109280382021-07-26 12:52:361 day 22 hrs ago0xdf0449a06d9d499400d65ee886fd3b5a7b1f5be4OUT 0x0ee8b0133135268bec201d8d7752b2f90e5a6c920 BNB0.00069692
0xacb9f2fe609540e7977856734c4bd3eff46628bbf9857172f168d7cb0b5ee3a1109278382021-07-26 12:42:361 day 22 hrs ago0x4c059dd7b01aaecdaa3d2caf4478f17b9c690080 IN 0xdf0449a06d9d499400d65ee886fd3b5a7b1f5be40.68900074 BNB0.00021
0x587f07be21caeb3c3583d1b3ccb4f756c489cec84efbc4e703470e2619eacaf7109275542021-07-26 12:28:241 day 23 hrs ago0xdf0449a06d9d499400d65ee886fd3b5a7b1f5be4OUT 0x50f08f4e63eb90247f7fc707630e3858a82763160 BNB0.02745778
0xdfc66ee52a5242c2c2913e6b394e7c582f942acc067aa0b99fdd224ba760ef03109274632021-07-26 12:23:511 day 23 hrs ago0xdf0449a06d9d499400d65ee886fd3b5a7b1f5be4OUT 0x50f08f4e63eb90247f7fc707630e3858a82763160 BNB0.0006968
[ Download CSV Export 
Parent Txn Hash Block From To Value
Loading

Contract Name:
0 BNB

Compiler Version
0

Optimization Enabled:
0 BNB

Other Settings:
-NA-
Block Transaction Gas Used Reward
Age Block Fee Address BC Fee Address Voting Power Jailed Incoming
Block Uncle Number Difficulty Gas Used Reward
Loading